Tracking 18186 objects as of 30-March-2017
HD Live streaming from Space Station
objects crossing your sky now

NAVSTAR 19 (USA 54)

Track NAVSTAR 19 (USA 54) now!
NAVSTAR 19 (USA 54) is classified as:


NORAD ID: 20533
Int'l Code: 1990-025A
Perigee: 20,961.7 km
Apogee: 21,168.3 km
Inclination: 55.6 °
Period: 753.8 minutes
Semi major axis: 27436 km
RCS: 0.6015 m2 (medium)
Launch date: March 26, 1990
Source: United States (US)
Launch site: AIR FORCE EASTERN TEST RANGE (AFETR)
PRN:
Your satellite tracking list
Your tracking list is empty





NASA's NSSDC Master Catalog

Two Line Element Set (TLE):
1 20533U 90025A   17087.90601076 -.00000066 +00000-0 +00000-0 0  9994
2 20533 055.5780 008.7180 0037660 156.2005 145.3673 01.91038760190688
Source of the keplerian elements: AFSPC